Total_Precipitation_Accumulation
0.09 0.11 0.17 0.16 0.16 0.16 0.18 0.22 0.31 0.36 0.29 0.29 0.49 0.74 0.79 0.93 1.23 1.54 1.91 2.16 2.51 2.87 3.22 3.66 3.74 3.96 4.29 4.94 5.48 5.79 5.90 5.88 5.68 5.38 5.03 4.83 4.84 4.79 4.49 4.27 4.13 4.01 3.88 3.91
0.13 0.12 0.10 0.10 0.13 0.14 0.17 0.24 0.29 0.34 0.32 0.29 0.52 0.82 0.94 1.18 1.49 1.54 1.73 1.90 2.11 2.52 2.85 3.20 3.39 3.49 3.93 4.58 5.07 5.27 5.11 5.14 5.02 4.84 4.77 4.74 5.02 4.70 4.38 4.23 4.09 3.77 3.75 3.84
0.12 0.12 0.08 0.08 0.09 0.12 0.16 0.18 0.23 0.32 0.35 0.42 0.66 1.14 1.27 1.39 1.51 1.49 1.58 1.78 1.90 2.15 2.45 2.79 2.93 3.10 3.38 3.55 3.85 4.06 4.29 4.31 4.27 4.31 4.27 4.34 4.58 4.41 4.29 4.18 4.07 3.64 3.46 3.45
0.08 0.08 0.09 0.10 0.10 0.11 0.16 0.15 0.15 0.21 0.35 0.59 0.76 1.47 1.66 1.55 1.57 1.63 1.60 1.57 1.80 2.10 2.12 2.24 2.48 2.64 2.93 3.16 3.41 3.49 3.59 3.79 3.91 4.04 3.94 3.79 3.68 3.69 3.70 3.78 3.72 3.68 3.52 3.41
0.09 0.08 0.08 0.11 0.10 0.09 0.11 0.12 0.14 0.26 0.40 0.57 0.71 1.15 1.61 1.84 1.86 1.62 1.52 1.38 1.58 1.74 1.69 1.65 1.85 2.03 2.34 2.67 2.96 3.10 3.15 3.34 3.68 3.82 3.76 3.73 3.47 3.42 3.46 3.53 3.58 3.58 3.50 3.40
0.08 0.08 0.07 0.08 0.08 0.08 0.10 0.15 0.25 0.44 0.66 0.95 0.83 1.00 1.53 1.83 2.02 1.73 1.45 1.33 1.42 1.39 1.37 1.51 1.70 1.87 2.09 2.40 2.57 2.70 2.83 2.98 3.26 3.43 3.53 3.60 3.51 3.37 3.33 3.32 3.34 3.32 3.33 3.22
0.14 0.14 0.12 0.09 0.09 0.10 0.12 0.25 0.72 1.17 1.47 1.45 0.97 1.01 1.43 1.41 1.39 1.44 1.36 1.34 1.35 1.28 1.26 1.30 1.41 1.63 1.88 2.13 2.29 2.39 2.52 2.67 2.76 2.84 3.01 3.19 3.22 3.20 3.02 2.92 2.95 2.94 2.76 2.69
0.20 0.27 0.17 0.11 0.11 0.13 0.15 0.25 0.79 1.20 1.25 1.24 1.07 1.34 1.73 1.38 1.26 1.19 1.24 1.32 1.29 1.16 1.17 1.26 1.34 1.42 1.53 1.75 2.02 2.13 2.21 2.34 2.51 2.57 2.69 2.88 2.91 2.84 2.62 2.71 2.70 2.61 2.37 2.31
0.15 0.15 0.11 0.10 0.11 0.15 0.21 0.24 0.35 0.66 0.76 0.95 1.15 1.47 1.70 1.36 1.29 1.41 1.49 1.45 1.38 1.12 1.02 1.07 1.08 1.18 1.26 1.37 1.54 1.70 1.94 2.09 2.25 2.42 2.52 2.54 2.50 2.57 2.53 2.62 2.72 2.51 2.45 2.29
0.10 0.11 0.11 0.10 0.12 0.16 0.20 0.22 0.31 0.59 0.85 1.06 1.16 1.59 1.90 1.81 1.60 1.49 1.55 1.40 1.14 1.00 0.93 0.87 0.86 0.92 1.05 1.20 1.36 1.59 1.78 1.81 1.98 2.25 2.29 2.17 2.41 2.50 2.49 2.52 2.45 2.40 2.42 2.38
0.09 0.09 0.11 0.13 0.15 0.18 0.24 0.28 0.39 0.57 0.65 0.93 1.34 1.57 1.49 1.48 1.36 1.39 1.36 1.21 1.03 0.92 0.92 0.88 0.85 0.90 0.97 1.06 1.28 1.55 1.90 2.06 2.01 2.03 2.20 2.34 2.40 2.47 2.47 2.38 2.23 2.27 2.34 2.36
0.10 0.10 0.16 0.20 0.21 0.22 0.22 0.25 0.37 0.57 0.56 0.64 0.98 1.27 0.88 0.90 0.92 1.00 1.06 0.94 0.93 0.92 0.88 0.93 0.97 0.96 0.97 1.08 1.31 1.53 1.71 1.91 1.96 2.11 2.39 2.55 2.47 2.47 2.48 2.38 2.27 2.16 2.08 2.13
0.13 0.15 0.24 0.46 0.55 0.35 0.24 0.23 0.26 0.33 0.37 0.46 0.83 1.06 0.69 0.76 0.89 1.01 1.11 1.15 1.12 1.03 0.88 0.91 1.12 1.19 1.07 1.15 1.36 1.61 1.78 1.93 2.07 2.26 2.48 2.57 2.43 2.37 2.43 2.34 2.13 2.02 1.93 1.96
0.14 0.18 0.26 0.55 0.63 0.49 0.36 0.29 0.26 0.31 0.40 0.41 0.49 0.75 0.72 0.78 0.95 1.07 1.15 1.19 1.08 1.00 0.97 1.02 1.14 1.16 1.28 1.33 1.46 1.67 1.73 1.91 2.00 2.00 2.18 2.34 2.26 2.12 2.04 2.04 2.00 1.98 1.97 1.93
0.13 0.15 0.17 0.23 0.30 0.37 0.39 0.33 0.27 0.24 0.28 0.43 0.44 0.54 0.68 0.82 0.86 1.06 1.10 1.07 1.10 1.04 1.03 1.08 1.22 1.20 1.17 1.22 1.23 1.34 1.39 1.58 1.59 1.66 1.75 1.84 1.81 1.82 1.79 1.75 1.72 1.78 1.84 1.81
0.27 0.24 0.21 0.22 0.25 0.28 0.31 0.32 0.25 0.19 0.18 0.22 0.38 0.65 0.69 0.73 0.79 0.96 0.98 0.99 1.08 1.18 1.16 1.18 1.25 1.34 1.20 1.13 1.09 1.06 1.15 1.34 1.50 1.62 1.55 1.57 1.65 1.59 1.56 1.60 1.60 1.65 1.74 1.86
0.45 0.43 0.37 0.32 0.29 0.35 0.40 0.32 0.27 0.21 0.20 0.22 0.42 0.71 0.74 0.78 0.88 1.00 1.06 1.08 1.04 1.05 1.12 1.21 1.29 1.31 1.12 1.08 1.07 1.09 1.12 1.24 1.38 1.50 1.58 1.66 1.71 1.66 1.61 1.67 1.78 1.79 1.94 2.03
0.49 0.57 0.50 0.43 0.51 0.67 0.47 0.33 0.31 0.36 0.33 0.32 0.39 0.49 0.58 0.76 0.83 0.88 0.94 1.14 1.23 1.17 1.25 1.30 1.27 1.24 1.20 1.13 1.14 1.15 1.14 1.23 1.37 1.43 1.56 1.70 1.74 1.69 1.72 1.74 1.76 1.90 2.10 2.18
0.38 0.57 0.60 0.57 0.67 0.59 0.51 0.43 0.41 0.49 0.57 0.49 0.58 0.55 0.61 0.72 0.82 1.00 0.93 1.03 1.01 1.15 1.21 1.26 1.29 1.28 1.31 1.27 1.33 1.33 1.27 1.34 1.50 1.64 1.73 1.72 1.78 1.83 1.89 1.94 2.00 2.11 2.19 2.21
0.48 0.62 0.78 0.72 0.86 0.89 0.78 0.66 0.58 0.62 1.00 0.75 0.73 0.77 0.85 0.90 1.12 1.39 1.23 1.08 1.07 1.17 1.15 1.19 1.20 1.25 1.33 1.33 1.48 1.59 1.61 1.61 1.71 1.86 1.99 2.03 2.13 2.25 2.25 2.37 2.49 2.51 2.49 2.41
1.01 1.01 0.93 0.94 1.06 1.07 0.84 0.73 0.71 1.22 1.46 0.95 0.86 0.91 0.92 1.00 1.14 1.21 1.25 1.26 1.19 1.04 1.01 1.07 1.15 1.14 1.26 1.47 1.68 1.85 1.89 1.84 1.91 2.04 2.22 2.39 2.51 2.73 2.88 2.98 2.91 2.82 2.80 2.78
1.19 1.30 1.28 1.29 1.49 1.44 0.91 0.84 1.22 1.55 1.24 1.23 1.08 1.01 1.03 1.00 1.06 1.15 1.22 1.26 1.12 1.09 1.06 1.10 1.21 1.21 1.28 1.53 1.74 1.92 1.99 2.04 2.21 2.35 2.54 2.69 2.89 2.96 3.09 3.49 3.54 3.51 3.40 3.10
1.35 1.43 1.43 1.48 1.59 1.32 1.13 1.29 1.41 1.41 1.39 1.45 1.46 1.29 1.20 1.14 1.15 1.21 1.18 1.12 1.06 1.08 1.04 1.08 1.23 1.36 1.44 1.60 1.87 2.15 2.21 2.26 2.38 2.54 2.76 2.92 3.01 3.12 3.25 3.44 3.44 3.42 3.35 3.07
1.54 1.32 1.50 1.67 1.74 1.52 1.44 1.44 1.49 1.52 1.46 1.43 1.53 1.68 1.68 1.43 1.28 1.30 1.27 1.18 1.18 1.22 1.17 1.20 1.32 1.49 1.70 1.86 2.08 2.33 2.39 2.51 2.59 2.65 2.77 2.86 2.95 3.07 3.25 3.41 3.35 3.29 3.21 3.17
1.55 1.62 1.85 2.13 2.09 1.92 1.74 1.73 1.82 1.72 1.62 1.65 1.67 1.75 1.84 1.52 1.29 1.25 1.35 1.33 1.34 1.44 1.47 1.46 1.53 1.67 1.90 2.06 2.25 2.37 2.41 2.59 2.75 2.72 2.76 2.87 2.89 2.92 3.05 3.14 3.25 3.17 3.08 3.12
1.57 1.83 2.18 2.44 2.18 2.23 2.06 1.75 1.83 1.93 1.79 1.79 1.76 1.72 1.60 1.50 1.44 1.47 1.51 1.49 1.49 1.62 1.67 1.69 1.70 1.81 1.99 2.16 2.35 2.44 2.56 2.71 2.86 2.90 2.81 2.84 2.87 2.89 2.90 2.87 2.76 2.77 2.72 2.70